Overview Statistics Trail Chart Weather Telemetry Raw packets
 

This is the latest recevied weather packets stored in our database for station/object KK4MOR. If no packets are shown the sender has not sent any weather packets the latest 10 day(s).

<< 32 33 34 35 36 37 38 >>
Time Temp. Humidity Pressure Rain* Wind** Luminosity Snow
1787859023 30.56° C 62% 1012.1 hPa 0 mm - - -
1787858119 29.44° C 63% 1012.2 hPa 0 mm - - -
1787857219 29.44° C 62% 1012.2 hPa 0 mm - - -
1787856314 28.89° C 65% 1012.3 hPa 0 mm - - -
1787855413 28.89° C 68% 1012.3 hPa 0 mm - - -
1787854511 28.89° C 66% 1012.7 hPa 0 mm - - -
1787853620 28.33° C 70% 1012.9 hPa 0 mm - - -
1787852704 27.78° C 72% 1013.1 hPa 0 mm - - -
1787851804 27.78° C 72% 1013.2 hPa 0 mm - - -
1787850905 27.22° C 73% 1013.3 hPa 0 mm - - -
1787850062 27.22° C 74% 1013.5 hPa 0 mm - - -
1787849161 27.22° C 75% 1013.5 hPa 0 mm - - -
1787848261 26.67° C 75% 1013.8 hPa 0 mm - - -
1787847355 26.11° C 75% 1013.9 hPa 0 mm - - -
1787846472 26.11° C 75% 1014.1 hPa 0 mm - - -
1787845548 25.56° C 76% 1014.1 hPa 0 mm - - -
1787844646 25.56° C 79% 1013.9 hPa 0 mm - - -
1787843759 25° C 81% 1013.7 hPa 0 mm - - -
1787842843 24.44° C 80% 1013.4 hPa 0 mm - - -
1787841938 24.44° C 82% 1013.4 hPa 0 mm - - -
1787841036 23.89° C 87% 1013.6 hPa 0 mm - - -
1787840133 22.78° C 91% 1013.3 hPa 0 mm - - -
1787839239 21.67° C 94% 1013.3 hPa 0 mm - - -
1787838326 21.11° C 97% 1013.2 hPa 0 mm - - -
1787837424 20.56° C 99% 1013.3 hPa 0 mm - - -

* Rain latest hour (hover to see other rain measurements)
** Current wind speed in m/s (hover to see current wind gust speed)